Location: Hamayl? Da??
(36.7028°N, 30.1716°E)
Time: 23:40:23
(UTC+00:00)

Cosmos 2263 Rocket - Pass Details

Date: 04 August 2024
Orbit: 821 x 849 km, 71.0° (Epoch: 18 September)

Event Time Altitude Azimuth Distance (km) Brightness Sun altitude
Rises 21:06:29 0° 352° (N) 3,392 6.4 -34.6°
Reaches altitude 10° 21:09:38 10° 10° (N) 2,460 5.3 -34.8°
Enters shadow 21:13:07 19° 48° (NE) 1,892 4.2 -35.0°
